Location: Lafig�re
(44.4503°N, 4.0357°E)
Time: 15:40:56
(UTC+00:00)

COSMOS 2406 - Pass Details

Date: 24 September 2020
Orbit: 844 x 863 km, 71.0° (Epoch: 20 October)

Event Time Altitude Azimuth Distance (km) Brightness Sun altitude
Rises 19:38:43 0° 336° (NNW) 3,413 7.1 -22.1°
Reaches altitude 10° 19:41:12 10° 338° (NNW) 2,475 6.2 -22.5°
Maximum altitude 19:46:52 72° 63° (ENE) 893 3.1 -23.4°
Enters shadow 19:47:57 57° 122° (ESE) 994 3.2 -23.6°
